Location: Unspecified
(50.7693°N, 0.0000°E)
Time: 06:25:39
(UTC+00:00)

Vanguard 2 - Pass Details

Date: 22 June 2019
Orbit: 553 x 2938 km, 32.9° (Epoch: 15 July)

Event Time Altitude Azimuth Distance (km) Brightness Sun altitude
Rises 12:05:56 0° 252° (WSW) 4,106 11.4 62.7°
Reaches altitude 10° 12:09:08 10° 237° (WSW) 3,476 11.3 62.6°
Maximum altitude 12:15:48 22° 190° (S) 3,252 11.6 62.5°
Drops below altitude 10° 12:24:53 10° 147° (SSE) 4,910 12.1 62.3°
Sets 12:30:39 0° 135° (SE) 6,294 12.4 62.1°
